Theta_e
340 341 341 337 336 336 334 333 333 334 335 335 336 336 335 335 336 336 336 335 335 334 334 333 332 333 333 334 334 334 334 334 334 333 333 333 334 334 334 334 334 335 335 335 335 335 335 334 334 334 335 335 333 332 332 332 331 330 329 327 325 325 324 323 322 321 323 326 327 327 327 329 328 326 324 324 322 320 320 320 320 326 331 328 323
340 340 340 337 336 336 335 335 334 335 335 335 335 335 335 335 335 335 334 334 334 333 333 333 332 332 332 332 333 333 333 334 334 334 334 334 334 334 334 334 334 334 334 334 334 334 334 333 333 333 333 334 333 332 332 331 331 331 332 331 331 330 329 328 326 323 322 322 325 328 330 331 329 326 327 327 326 324 322 322 324 331 333 326 325
340 340 339 336 336 335 335 335 333 334 335 335 335 335 335 334 334 334 333 333 333 333 333 333 332 332 332 332 332 333 333 334 334 333 333 333 333 333 334 333 334 334 334 334 333 333 333 332 332 332 332 333 333 332 331 331 331 331 331 331 331 331 330 329 328 328 327 326 327 331 333 330 329 328 328 328 328 326 325 325 326 330 327 323 326
340 339 337 335 335 334 334 334 333 334 334 335 335 334 334 334 334 333 333 332 332 332 332 332 332 331 332 332 332 332 332 333 332 332 333 333 333 332 333 333 333 333 333 333 333 332 332 332 332 332 332 332 332 332 330 329 330 330 330 330 330 331 330 328 327 328 328 329 330 332 332 329 329 329 328 328 328 327 327 327 326 326 325 326 328
339 336 334 334 334 333 333 334 334 334 335 335 335 334 334 334 334 333 332 331 331 331 331 331 332 331 331 332 331 331 330 330 331 331 332 332 332 331 331 331 331 331 332 332 332 332 331 331 331 330 330 329 330 329 326 328 330 330 330 329 329 330 329 328 327 327 327 327 329 332 331 330 329 328 327 326 327 327 327 327 327 328 329 329 329
336 334 333 334 334 333 333 334 334 334 335 335 335 334 334 333 332 330 329 328 328 329 330 330 331 331 331 331 331 330 329 329 328 329 329 329 329 329 329 330 329 329 329 330 330 329 329 329 329 329 328 327 327 325 325 329 331 331 330 329 328 328 329 328 327 327 327 327 331 334 331 328 328 327 327 325 326 326 327 327 328 330 329 329 330
335 335 334 334 334 334 334 334 334 334 334 334 334 333 332 330 329 328 328 328 327 328 329 329 331 331 331 331 331 330 329 328 327 326 326 327 327 328 329 329 329 328 328 327 326 325 325 327 328 326 324 322 322 323 326 329 331 331 330 330 328 328 328 327 327 327 327 331 335 335 330 328 328 328 326 324 324 325 326 327 328 329 329 328 330
334 335 334 335 335 334 334 334 334 334 333 333 333 331 330 329 329 329 328 328 327 328 328 329 330 330 330 330 330 329 329 328 327 326 326 327 328 329 330 330 329 328 327 327 326 324 323 323 324 322 320 318 318 321 325 327 328 328 328 328 328 327 328 327 327 327 330 334 336 333 329 328 328 327 325 324 324 323 324 326 327 328 328 329 330
333 335 336 336 335 334 333 333 333 333 333 332 331 330 330 330 330 329 328 328 328 328 327 328 329 329 329 329 329 328 329 328 328 328 328 328 328 329 329 328 328 326 326 326 327 326 324 324 324 324 323 321 320 320 322 323 323 323 323 325 327 326 327 327 327 329 331 332 332 330 328 328 328 327 325 325 326 324 323 325 327 328 329 329 330
333 335 337 336 334 333 333 333 332 332 332 331 331 330 330 331 330 329 329 329 329 328 328 329 329 329 328 328 329 329 329 329 329 328 328 328 327 327 327 327 326 325 325 325 326 327 326 327 327 326 326 325 325 324 324 324 324 323 323 324 324 325 326 327 329 332 333 332 331 328 327 329 329 327 325 326 326 326 325 325 326 328 327 327 327
333 335 336 334 333 332 332 332 331 332 332 331 330 330 330 330 329 329 329 329 329 329 329 329 329 328 328 329 329 329 329 329 328 328 328 327 326 326 325 325 325 325 325 326 326 326 326 326 326 327 327 327 327 327 327 326 326 326 326 327 325 326 327 327 332 335 334 333 330 328 327 328 328 325 325 325 325 325 324 324 324 325 325 326 326
335 336 336 334 333 331 331 331 329 331 331 330 330 330 330 329 329 328 329 329 330 330 330 329 328 328 328 328 328 328 328 328 328 327 326 326 325 325 325 325 326 326 326 326 326 325 325 326 327 327 328 327 327 327 327 326 327 326 327 327 327 327 327 329 334 335 330 328 328 329 328 327 328 326 326 326 326 325 324 324 325 325 325 326 326
335 336 336 333 333 330 329 328 328 329 329 329 329 329 329 329 328 328 328 329 329 330 329 328 328 328 328 327 327 326 326 326 326 326 325 325 325 325 326 327 327 327 327 326 326 326 326 327 328 327 327 327 327 327 327 326 326 327 327 327 328 327 328 330 335 333 327 326 328 328 327 327 328 328 328 328 328 328 327 328 328 327 327 328 327
332 334 333 332 331 330 328 328 329 329 329 329 328 328 328 328 328 328 328 328 328 329 328 328 327 327 327 326 325 324 323 324 324 325 325 325 325 325 326 327 327 327 327 327 327 327 326 327 327 327 327 327 327 327 327 326 326 327 327 328 328 328 330 332 334 332 327 326 327 327 326 326 326 327 328 328 329 329 329 329 329 329 329 328 328
331 331 331 332 332 329 328 328 330 329 328 328 328 327 327 327 327 326 326 326 326 327 328 328 327 327 327 326 325 324 323 323 324 324 325 325 325 326 326 326 326 327 327 327 327 327 326 326 327 327 327 326 327 327 327 326 326 327 328 329 328 328 331 333 333 332 329 326 326 327 325 324 325 326 326 326 327 327 327 327 328 329 328 328 328
331 329 329 333 334 332 329 328 328 328 328 328 327 328 327 327 326 325 326 327 327 327 328 328 327 327 327 326 325 325 324 324 324 324 325 325 326 326 326 326 326 326 326 327 327 327 326 326 326 326 327 326 326 327 326 325 326 326 327 328 328 327 330 333 333 332 332 328 327 329 326 323 323 324 325 325 324 324 325 326 327 328 328 329 328
330 329 329 330 332 332 331 329 328 328 328 328 328 328 327 327 327 326 328 328 328 328 328 328 327 327 326 326 326 325 325 325 324 325 325 325 325 325 325 326 325 326 326 326 326 326 326 326 326 326 326 326 326 326 325 325 325 326 326 326 326 325 327 331 332 331 331 330 329 329 325 322 322 323 324 324 323 323 323 324 326 327 328 329 329
329 329 329 329 329 330 330 329 329 330 330 329 329 328 327 327 328 328 328 328 328 328 328 327 327 326 326 326 326 326 326 326 325 325 325 325 325 325 325 325 324 325 325 325 325 325 326 326 326 326 326 326 326 325 323 324 325 325 325 324 324 323 325 330 331 330 329 329 328 326 323 322 322 322 324 324 324 323 323 323 323 325 327 327 328
329 330 329 329 329 329 329 329 329 332 333 332 329 328 327 328 328 328 328 328 328 328 328 328 328 327 327 327 327 327 326 326 326 325 325 325 325 325 325 324 323 323 323 323 324 324 325 325 325 325 325 326 325 324 322 323 325 325 325 324 324 323 326 328 329 328 327 327 326 323 323 322 322 322 323 325 325 324 324 324 324 324 325 326 327
330 330 329 329 329 328 328 328 329 331 332 332 330 328 328 328 328 328 328 328 328 328 328 328 328 328 328 328 327 327 326 326 326 326 325 325 325 325 324 324 322 320 319 319 319 320 323 324 325 324 324 325 324 324 323 323 324 324 325 325 324 325 327 328 328 327 327 327 325 322 321 321 322 323 322 324 324 323 324 325 325 325 325 325 326
330 330 329 328 327 327 328 329 329 329 330 329 328 327 326 326 326 326 326 326 326 326 327 327 327 328 328 327 327 327 326 326 325 325 325 325 324 324 323 321 318 315 314 313 313 313 315 319 324 324 322 323 323 323 324 323 325 325 324 325 325 326 326 326 327 326 326 326 323 318 317 317 319 321 321 321 322 322 322 323 324 324 325 325 326
332 331 329 328 328 328 329 329 329 328 328 327 326 325 324 324 324 323 323 323 323 323 323 323 325 326 326 326 326 325 325 325 324 324 323 323 323 321 318 315 313 311 310 309 309 309 310 312 318 323 322 321 322 324 326 324 324 325 324 325 325 325 325 325 325 325 324 324 319 313 312 313 314 317 319 320 322 323 321 320 321 323 324 325 326
334 333 331 329 331 332 330 329 328 327 327 326 326 325 325 324 323 322 322 321 321 321 320 321 322 323 323 323 323 322 323 322 320 319 319 320 319 315 311 310 309 309 308 308 308 307 309 310 314 320 321 321 322 325 328 328 326 326 325 325 325 325 325 325 324 324 324 323 317 312 311 311 310 312 316 318 321 323 321 320 321 322 323 323 324
333 334 333 332 334 333 329 328 327 327 327 326 326 326 325 324 324 324 323 323 322 322 321 321 321 321 321 321 320 320 321 320 317 315 316 316 315 313 311 310 311 310 310 314 315 311 312 314 314 317 321 322 323 324 327 329 328 327 326 325 324 324 324 324 325 324 323 321 317 314 313 313 312 312 314 315 317 319 318 319 319 318 319 319 319
333 333 333 333 333 331 328 328 327 327 327 325 325 324 324 324 324 324 323 323 323 323 322 321 320 321 322 321 321 320 320 319 316 314 313 312 312 315 315 315 316 315 314 318 319 317 318 319 317 318 321 322 323 324 325 327 327 326 325 323 324 324 325 325 325 325 323 318 316 316 316 317 317 316 315 313 312 313 314 315 315 314 314 314 314
333 332 332 332 331 330 328 327 327 327 326 324 324 324 323 324 323 322 322 322 322 322 322 322 321 321 321 321 320 319 318 317 314 313 313 313 312 314 316 316 317 317 317 319 318 318 319 319 319 319 320 321 322 323 324 325 325 325 324 323 324 325 326 326 326 326 323 318 316 316 316 317 317 316 317 317 316 315 316 317 317 318 319 318 317
332 332 332 330 328 329 328 326 327 327 325 323 324 324 323 323 321 320 320 320 321 321 321 321 321 320 320 319 319 318 317 317 315 313 313 313 313 313 315 316 317 317 317 319 319 318 319 319 319 319 319 320 321 322 323 324 325 325 324 324 325 326 326 325 325 325 322 317 315 315 315 315 315 315 317 319 319 318 319 320 320 321 321 320 319
332 332 331 330 328 327 326 325 326 326 324 323 324 323 322 321 321 320 319 319 320 321 320 320 320 319 318 318 318 318 317 317 316 315 312 311 310 310 312 313 315 316 316 317 318 318 319 319 318 318 319 319 320 322 323 323 324 324 324 324 326 327 325 323 323 324 322 317 315 315 315 314 314 314 315 317 317 317 317 318 319 319 318 318 319
332 331 330 329 327 325 324 325 325 324 323 323 323 322 321 320 319 319 319 319 320 320 319 319 319 318 318 317 317 317 317 316 316 314 311 309 309 308 308 309 310 312 314 315 316 318 318 318 318 318 318 318 319 320 322 323 323 323 323 324 325 325 323 322 322 322 321 316 315 316 315 315 314 315 315 315 315 315 316 316 317 317 317 319 320
331 330 329 328 327 326 325 325 325 323 322 322 322 320 319 319 319 319 319 319 319 319 319 319 318 318 317 316 316 316 316 316 313 311 308 307 308 308 307 307 306 308 310 311 313 316 317 318 318 318 318 318 318 320 321 322 322 322 322 322 323 322 321 321 320 320 320 316 316 316 315 315 315 315 315 315 315 316 317 317 318 318 318 319 318
331 329 327 327 327 326 325 324 323 322 321 321 320 318 318 319 319 319 319 318 318 318 318 318 317 318 316 315 314 315 315 313 310 308 306 305 306 306 307 307 306 306 307 308 309 313 316 317 317 318 318 317 318 318 320 321 321 321 321 321 321 320 320 319 319 318 318 317 316 316 315 315 315 316 316 315 316 316 317 317 318 318 318 317 317
329 328 327 327 326 325 324 322 321 320 319 319 318 318 318 319 319 318 318 318 318 318 318 317 318 317 316 314 314 314 314 312 308 306 305 305 305 305 306 306 306 305 306 306 306 309 314 315 315 316 317 317 317 317 318 319 320 321 320 320 320 319 318 318 317 317 317 317 317 316 316 316 315 316 316 316 316 316 316 316 316 317 316 316 316
327 327 327 327 326 325 323 321 320 318 317 317 317 318 319 319 318 317 317 317 318 318 318 318 318 317 316 314 314 314 313 312 308 306 305 305 305 305 305 305 305 305 305 306 305 306 311 314 315 316 316 317 317 317 317 316 318 322 321 320 320 319 318 318 318 317 317 318 317 317 317 316 315 316 316 315 315 316 316 316 316 316 315 315 315
327 326 326 326 325 323 322 320 318 316 316 315 316 318 319 318 318 317 317 317 318 318 318 318 318 318 317 314 314 314 313 312 308 305 305 305 305 304 305 304 305 305 304 305 306 306 309 312 314 315 316 316 317 316 317 316 316 321 323 321 320 320 319 319 319 319 319 319 318 318 317 316 315 315 315 315 315 315 315 315 315 315 315 315 315
327 326 325 323 322 322 320 318 316 315 316 316 317 318 318 318 318 317 317 317 317 317 318 318 318 318 318 316 314 314 313 311 307 304 304 304 303 303 303 303 303 303 303 304 305 306 306 308 311 314 315 315 316 316 316 315 314 317 320 321 322 322 321 321 321 320 320 319 317 317 315 314 314 314 313 313 314 313 313 313 313 313 312 312 312
326 325 324 322 321 320 318 316 315 315 316 316 317 318 318 318 317 317 317 317 317 318 318 318 319 318 319 317 315 314 313 311 306 304 304 303 302 301 301 302 302 301 301 303 303 305 305 305 307 311 314 314 315 315 315 315 314 314 315 317 319 321 322 322 320 318 317 316 315 314 313 313 312 312 312 311 311 311 310 310 309 309 308 308 308
325 324 323 322 321 319 317 317 316 315 314 316 317 318 318 317 317 317 317 318 317 318 318 319 319 319 319 318 316 315 314 311 306 303 303 301 300 300 300 301 300 300 300 301 302 302 304 304 305 308 312 314 313 314 314 314 314 314 314 314 315 316 317 317 316 314 313 313 312 312 311 311 310 310 309 309 308 308 307 307 306 305 304 304 303
324 323 323 322 321 319 318 317 317 315 314 316 318 317 317 317 317 317 318 318 318 319 319 319 319 319 319 317 316 316 314 311 306 303 302 300 300 300 300 300 300 300 300 300 300 301 301 303 305 306 310 313 313 313 313 312 312 312 313 313 313 313 313 313 313 312 311 310 310 309 309 309 308 307 307 306 305 304 303 302 301 300 299 299 298
324 323 322 322 321 320 319 317 316 314 313 316 318 317 317 317 317 317 318 318 318 319 319 319 319 319 318 317 317 316 315 312 306 302 301 300 299 299 299 300 300 299 300 300 300 300 300 302 305 306 309 311 311 311 311 311 311 311 311 311 311 311 311 311 310 310 309 309 309 308 308 307 305 304 302 301 300 300 299 298 297 297 296 297 296
325 323 322 322 321 319 317 316 316 314 313 315 318 317 316 316 317 317 318 318 318 319 319 319 319 319 318 317 317 317 316 313 307 303 301 299 299 299 299 299 299 299 299 300 299 300 300 302 305 307 308 309 310 310 310 310 311 311 311 310 310 310 309 309 308 309 309 308 308 307 305 304 302 300 299 298 298 298 297 297 297 296 296 296 296
324 323 323 322 321 319 317 316 316 315 314 316 317 317 316 316 317 318 318 318 318 318 319 319 318 317 317 317 317 317 316 313 308 303 301 300 299 299 299 299 299 299 299 299 300 299 299 301 305 307 308 309 310 310 309 310 310 310 310 310 309 309 309 308 307 307 307 307 306 305 303 301 299 298 298 297 297 297 297 297 296 296 296 295 295
324 323 323 322 321 319 318 317 317 316 315 316 316 317 317 317 317 317 318 318 319 319 319 319 317 315 315 316 317 317 317 315 310 305 301 299 299 299 299 299 299 299 299 299 299 299 299 301 304 307 308 308 308 309 309 311 313 312 311 310 310 310 310 308 306 306 305 305 304 303 301 299 298 297 297 297 297 296 296 296 296 296 295 295 295
325 324 323 322 320 320 319 317 317 318 316 316 316 317 317 317 317 317 318 319 319 319 318 317 316 314 314 316 317 318 317 316 313 307 302 300 299 299 299 299 299 299 299 299 299 299 299 299 302 306 308 308 307 308 308 311 314 313 313 313 313 313 313 310 307 304 303 302 301 300 299 298 297 297 297 297 296 296 296 296 296 296 296 296 295
325 324 323 322 320 320 319 318 317 318 317 316 316 317 318 318 318 318 319 319 318 317 317 317 316 314 314 316 317 318 318 317 315 310 304 300 299 299 299 299 299 299 299 299 299 299 299 299 300 303 307 310 308 306 307 309 310 313 315 315 314 314 315 312 308 304 302 300 299 298 297 297 296 297 297 297 296 296 296 296 296 296 296 295 295
325 324 324 323 321 320 319 318 318 318 318 317 316 317 318 318 318 319 319 318 318 318 318 318 317 315 315 316 317 318 318 318 317 313 307 302 300 299 299 299 299 299 299 298 298 299 298 298 299 299 302 306 304 303 304 304 306 309 312 313 314 314 313 309 307 307 303 300 299 298 297 296 296 296 296 296 296 296 295 296 296 296 295 295 295
325 325 324 323 321 320 319 319 318 318 318 317 316 316 317 318 318 318 318 318 319 319 319 319 318 317 316 317 317 317 318 319 318 315 311 305 301 299 299 299 299 299 298 298 298 298 298 298 298 298 298 300 300 299 299 300 301 304 305 307 308 308 307 306 307 309 306 302 300 298 297 296 296 296 296 295 295 295 295 295 295 295 295 295 294
326 325 324 323 321 320 320 319 318 318 319 317 316 316 317 318 318 318 318 318 319 319 318 317 317 316 316 317 317 317 318 319 319 318 314 308 303 300 299 299 299 299 298 299 299 298 298 298 298 298 298 298 298 298 298 299 299 299 300 301 301 299 299 302 306 307 307 306 303 300 298 297 296 296 295 295 295 295 295 295 294 294 294 294 294
326 326 325 323 322 320 320 319 318 318 319 318 316 317 317 317 318 318 318 318 319 319 317 315 314 315 316 317 317 317 317 318 320 319 317 312 306 301 299 298 299 298 298 298 299 299 298 298 298 298 297 297 297 297 297 298 298 297 297 298 298 298 297 298 300 302 304 307 305 302 300 298 298 297 295 295 295 294 295 295 294 294 294 293 293
327 326 325 324 322 321 320 319 318 318 319 318 317 317 317 317 318 318 318 319 319 319 318 315 314 316 316 317 317 317 317 318 320 320 319 315 310 305 300 298 298 298 298 298 298 299 298 298 298 297 297 297 297 297 297 297 297 297 297 297 297 299 300 298 298 300 301 303 304 302 300 299 300 300 296 294 295 295 295 295 294 294 294 293 293
327 326 325 324 323 322 320 320 319 319 318 318 317 317 317 317 317 318 319 319 319 319 319 315 314 316 316 317 317 317 317 318 319 320 320 318 314 309 303 299 298 298 298 298 298 298 298 298 298 297 297 297 297 297 297 297 297 297 297 297 297 299 301 299 298 299 300 301 302 301 299 299 300 300 297 294 294 295 295 295 295 295 293 293 293
327 326 326 324 323 322 321 320 319 319 319 318 318 317 317 317 317 318 318 319 319 319 319 316 315 316 317 317 317 317 317 318 319 320 321 319 317 313 307 301 299 298 298 298 298 298 298 298 298 297 297 297 297 297 297 297 297 297 296 296 296 296 298 298 296 297 298 298 301 301 299 298 299 300 298 295 295 295 295 295 295 294 293 293 293
Wind_Speed
6 3 3 8 7 7 8 7 6 6 6 5 5 5 5 4 4 4 4 5 4 4 4 4 4 4 4 3 3 3 3 3 2 2 2 2 1 1 1 1 2 2 2 2 2 3 3 4 4 4 4 5 4 5 5 5 5 5 5 5 5 5 5 5 4 3 3 3 3 4 5 6 6 6 5 4 4 2 2 1 1 2 1 3 3
6 3 6 10 8 7 7 8 7 6 6 5 5 5 5 4 4 4 4 4 4 4 4 4 4 4 4 3 3 3 3 3 2 2 2 2 2 2 2 2 3 3 3 3 3 3 4 4 5 5 5 5 5 5 4 4 4 5 5 6 6 6 6 6 6 5 5 4 5 6 7 8 6 5 5 4 5 4 3 2 3 4 2 2 1
6 4 9 11 8 6 6 8 7 6 6 5 5 4 4 4 4 4 4 4 4 4 4 4 4 4 4 3 3 2 3 2 2 2 2 2 3 3 3 3 4 4 4 4 4 4 4 5 5 5 5 5 5 5 5 4 5 5 6 6 7 7 7 7 7 6 6 6 6 7 9 10 6 5 6 5 6 6 5 4 5 5 1 2 4
7 6 8 9 7 6 6 6 7 6 5 5 4 4 4 4 4 4 4 4 4 4 4 4 4 4 4 4 3 3 3 3 3 3 3 3 4 4 4 5 5 5 5 5 5 5 5 5 5 5 5 5 6 6 5 4 5 5 6 6 7 7 7 7 7 7 7 6 6 7 8 8 5 3 6 6 6 7 7 6 6 6 5 5 5
6 7 8 8 7 6 6 6 6 5 5 4 4 4 4 4 4 4 4 4 4 4 3 4 4 4 4 4 4 3 3 3 3 3 4 4 4 5 5 5 5 6 6 6 5 5 5 5 5 5 6 6 6 5 4 4 5 6 5 5 6 6 6 7 7 8 7 6 6 6 5 5 5 4 6 6 6 6 6 6 7 7 6 5 5
6 7 8 7 6 5 5 5 5 4 4 4 5 5 5 4 4 3 4 4 4 3 3 4 4 5 4 4 4 4 4 4 4 4 4 4 4 5 5 5 5 5 6 6 5 5 5 5 6 7 7 6 6 5 4 4 5 5 5 5 5 5 5 6 7 8 8 6 5 4 4 5 5 5 6 7 7 6 5 5 6 6 6 5 5
6 7 7 6 6 6 5 4 4 4 3 4 5 6 5 4 3 3 4 4 4 3 3 3 4 5 4 5 5 5 5 4 4 4 4 4 4 5 5 5 5 6 6 6 6 5 5 5 6 7 7 6 6 5 4 3 4 5 6 6 4 4 5 6 7 8 8 7 6 5 6 7 6 6 6 6 6 6 5 5 6 6 5 4 4
6 7 7 6 7 6 4 4 4 4 5 6 7 6 5 5 5 5 5 5 4 3 3 3 4 4 4 5 5 6 6 5 5 4 4 4 5 6 6 6 7 7 7 6 6 6 5 5 7 8 8 8 7 6 5 4 4 5 6 5 5 5 5 7 8 9 9 8 8 7 9 9 8 7 6 6 6 6 5 6 5 4 4 4 4
5 6 7 6 6 5 4 4 3 4 5 6 7 6 6 5 6 6 6 6 6 6 5 4 4 4 5 5 5 5 5 5 5 5 5 6 6 6 6 6 7 7 7 7 7 7 7 8 8 9 9 9 8 8 7 6 6 6 6 6 5 6 7 8 9 10 9 10 10 10 11 10 9 7 6 6 6 5 4 5 4 4 4 4 4
5 6 7 6 6 5 3 3 3 4 5 6 6 6 6 6 6 6 7 8 8 8 7 6 6 6 5 5 5 5 5 5 6 6 6 6 7 6 7 6 7 7 7 7 7 8 8 8 8 9 9 9 9 9 9 8 8 8 8 7 6 7 8 9 11 10 11 12 11 10 10 10 8 6 6 6 5 5 3 3 3 3 4 4 4
6 6 6 6 6 5 3 3 4 5 5 5 6 5 6 6 6 6 7 8 8 8 8 8 7 6 5 5 5 4 5 5 6 6 6 7 7 7 7 7 7 7 7 8 8 8 8 8 8 8 9 9 9 9 9 9 9 9 9 9 8 8 8 11 12 9 12 13 11 11 10 9 6 5 5 5 4 3 3 3 3 3 3 3 4
7 7 6 6 6 5 4 4 4 5 5 5 6 6 6 5 5 6 7 8 8 8 8 7 6 6 5 5 5 5 5 5 5 5 6 6 7 7 7 7 7 7 8 8 9 9 9 9 9 9 10 10 10 10 10 10 10 9 8 9 9 9 9 12 11 8 13 12 10 11 9 9 6 6 5 4 4 4 4 4 3 3 3 3 4
7 7 6 6 6 5 4 4 4 5 5 5 6 6 6 5 5 6 6 7 8 8 7 6 6 5 5 5 5 5 5 4 4 5 5 6 6 6 6 7 7 7 7 8 9 9 9 9 9 10 11 11 12 12 12 11 11 10 9 9 9 10 11 13 10 8 13 12 10 11 9 9 8 6 6 4 5 5 5 4 3 3 3 3 3
6 5 5 7 8 7 6 5 5 5 6 6 6 6 7 6 6 6 6 6 6 7 7 6 5 5 5 6 5 5 5 4 4 4 5 5 5 6 6 7 6 7 7 8 8 8 9 8 9 9 11 11 12 12 12 12 12 11 10 9 9 10 12 12 10 9 14 14 10 13 12 11 10 9 8 6 6 6 5 4 4 4 3 3 2
5 5 5 8 8 9 8 6 6 6 6 6 6 7 8 8 8 7 6 6 5 6 7 6 5 5 5 5 5 4 4 4 4 4 5 5 5 5 5 6 6 6 6 7 7 7 7 7 8 8 10 10 11 11 11 12 12 12 11 11 10 11 13 11 10 10 13 15 12 14 14 13 12 11 10 9 8 8 7 5 4 4 3 2 2
6 6 7 8 8 8 8 8 7 7 6 7 7 7 8 8 7 6 5 5 5 6 6 5 4 5 5 5 5 4 4 4 3 3 3 3 3 3 4 4 4 4 4 5 5 5 5 5 6 7 8 9 9 10 10 12 12 12 12 12 12 12 15 12 10 10 12 15 14 14 13 13 14 13 12 11 11 10 9 8 6 5 4 2 2
8 8 8 8 8 8 8 9 9 8 7 7 7 7 8 7 6 6 5 5 6 6 6 5 4 4 4 5 5 4 4 4 3 2 2 2 3 3 3 3 3 3 3 3 3 3 3 4 4 5 6 7 8 8 9 11 12 12 12 12 13 12 15 14 11 12 13 15 15 13 13 13 14 13 13 12 12 11 11 10 9 8 6 4 3
9 10 9 8 8 8 9 9 9 8 8 8 7 8 8 7 7 7 6 6 6 6 5 4 3 3 3 4 4 4 4 4 3 3 3 3 4 4 3 3 3 3 3 3 3 3 2 2 3 4 5 5 6 7 8 9 10 11 11 13 13 12 15 14 12 13 14 15 14 13 13 13 13 12 12 11 12 11 11 11 11 11 10 8 6
9 10 8 8 8 8 9 9 8 8 8 8 7 8 8 8 8 8 7 7 6 6 5 4 3 2 3 3 3 4 4 4 4 4 3 4 5 5 4 4 5 4 5 5 5 4 3 2 2 3 4 5 6 6 8 8 8 9 10 11 11 12 15 14 13 14 14 14 14 14 13 13 12 11 11 10 11 11 10 10 11 11 11 11 9
9 9 8 9 9 8 8 8 8 8 9 8 9 9 9 9 9 8 7 7 6 6 5 4 3 2 2 3 4 4 4 5 5 5 5 6 6 6 5 5 6 6 6 6 6 6 5 3 2 3 4 5 5 5 7 7 6 8 9 8 10 12 13 13 13 14 14 14 14 14 12 11 11 10 10 10 10 9 10 10 10 10 10 10 10
9 9 8 9 9 8 8 8 9 9 10 10 10 10 10 9 8 8 7 6 6 5 5 4 3 2 3 3 3 3 5 5 6 6 7 7 7 7 7 6 7 7 7 7 6 6 5 4 2 2 4 4 4 3 5 7 6 7 7 8 10 11 11 13 14 14 14 14 14 12 10 10 9 9 10 10 9 9 9 10 10 10 10 10 10
9 8 7 8 8 8 9 9 10 10 10 10 11 10 9 8 7 6 6 5 5 4 4 3 3 3 3 3 4 4 6 6 7 7 8 8 8 8 9 9 9 9 8 7 6 4 3 2 2 1 3 4 3 2 5 7 7 6 7 9 10 10 11 13 14 14 15 15 15 13 11 9 9 9 10 10 10 10 10 10 10 10 11 11 11
8 7 7 9 9 8 10 10 9 9 9 10 10 9 9 8 7 6 5 5 4 4 4 3 3 2 3 4 5 6 7 8 8 9 9 8 9 9 9 9 9 9 8 7 6 3 2 2 1 1 3 4 3 3 6 7 7 7 8 9 8 9 11 13 14 15 16 16 16 14 13 13 12 12 11 10 10 11 11 10 10 11 11 11 11
8 8 9 9 10 9 10 9 8 8 8 8 9 8 8 7 7 6 5 5 4 4 3 3 2 2 4 5 5 6 7 8 9 9 8 7 8 9 9 8 8 8 8 9 8 7 6 5 4 4 3 3 3 3 4 6 6 6 7 7 7 9 10 11 12 14 15 15 15 14 14 15 16 15 14 12 10 9 10 10 10 11 10 10 10
9 8 9 10 11 10 9 8 8 8 7 7 7 7 7 7 6 5 5 4 3 3 3 3 3 4 5 5 6 7 7 7 8 8 7 7 7 7 7 7 7 8 8 9 8 8 8 6 5 5 4 3 3 3 3 5 5 5 6 6 7 8 9 11 14 15 14 14 14 13 14 15 16 16 15 13 11 10 10 10 11 12 12 11 10
10 7 8 11 12 10 8 7 8 7 6 6 6 6 7 5 4 4 4 3 3 3 4 4 5 6 6 6 7 7 7 7 8 8 8 8 7 7 7 7 7 7 8 8 8 8 8 7 6 6 4 4 3 3 3 4 4 4 5 6 6 7 9 12 15 15 13 13 12 11 13 15 15 16 16 15 14 14 14 14 15 16 15 14 13
10 9 9 10 11 10 9 7 7 6 5 6 6 6 5 4 4 4 4 3 3 5 6 6 6 7 7 7 7 7 8 8 9 10 10 9 8 8 7 7 7 6 7 8 8 8 7 7 7 6 6 5 4 3 2 3 3 4 6 6 6 8 10 10 12 13 11 11 10 9 11 13 13 14 14 14 13 14 15 15 15 15 15 14 14
9 10 10 10 10 10 9 7 5 5 5 5 5 4 4 4 5 5 4 4 6 7 7 8 8 8 8 8 8 8 9 9 10 11 10 10 9 9 8 7 6 6 6 7 7 7 7 7 7 7 6 5 5 4 3 3 4 5 5 6 7 9 9 8 9 11 11 9 8 6 8 10 10 11 11 11 10 11 12 12 12 13 13 13 14
10 11 11 10 10 10 8 6 5 4 5 5 4 4 4 4 5 5 5 8 8 8 8 9 9 9 9 10 10 10 10 10 11 10 10 9 9 9 8 7 6 6 6 6 7 7 7 7 7 7 6 6 6 5 5 4 5 5 6 6 7 8 8 8 8 9 9 7 6 5 5 6 7 7 8 8 9 10 11 11 11 13 13 13 13
11 12 10 10 10 9 7 5 4 4 4 4 3 3 4 5 5 6 8 9 9 9 10 9 9 10 11 12 12 13 12 12 12 12 10 9 8 8 8 7 7 6 6 6 7 7 7 6 7 7 7 7 7 7 6 5 6 6 7 7 7 8 8 8 8 9 8 5 4 4 3 3 4 5 5 6 7 8 9 10 11 12 12 12 12
12 12 11 9 8 7 7 5 4 4 3 2 2 4 4 5 6 7 8 9 10 10 10 10 10 11 12 14 14 14 14 15 15 14 12 10 8 7 7 6 6 6 6 6 6 7 7 6 6 7 7 7 7 7 7 6 6 7 8 8 8 8 8 9 8 8 8 6 3 1 1 3 4 5 6 7 7 8 8 8 9 10 10 11 11
13 12 11 9 8 8 7 5 3 2 2 2 3 4 5 6 8 8 9 11 11 10 10 11 11 11 13 14 15 15 16 17 17 15 13 11 9 8 7 6 6 6 6 6 6 6 6 6 6 6 7 8 7 7 6 6 5 6 9 9 9 9 8 9 8 8 7 5 2 1 3 4 5 5 7 8 8 8 8 9 9 9 10 10 10
13 12 10 9 8 7 5 5 3 2 2 3 4 5 6 7 9 10 11 11 11 10 11 11 11 11 13 14 14 15 17 18 18 16 13 12 10 9 8 7 7 6 7 7 7 6 5 5 5 6 6 7 7 7 6 5 4 5 9 10 10 9 8 8 7 6 5 3 2 3 4 5 6 6 7 8 8 8 8 9 9 9 10 10 10
13 12 10 9 8 6 5 4 4 2 2 3 4 5 8 9 11 12 11 11 12 12 12 12 11 11 12 13 14 15 17 19 18 16 13 12 11 10 9 8 8 8 8 7 8 7 6 6 5 5 6 6 6 7 7 5 4 5 8 9 10 8 7 6 6 6 5 4 4 4 5 5 5 6 7 7 8 8 8 9 9 10 10 10 11
13 12 11 10 8 6 5 4 4 4 3 4 5 8 10 11 11 12 12 12 13 13 12 12 11 10 11 13 14 16 18 20 19 16 14 13 12 11 11 10 10 10 9 8 8 7 6 6 6 6 6 6 6 6 6 6 5 4 6 7 8 7 6 5 4 4 4 4 4 4 4 4 4 5 6 7 8 8 9 10 10 11 11 11 12
13 13 12 10 8 6 5 6 6 5 4 4 7 11 12 11 12 13 13 13 13 12 12 11 11 10 10 12 15 16 18 20 20 17 15 14 13 13 12 11 11 11 10 9 8 7 6 6 7 7 7 7 7 6 6 6 5 4 4 4 5 5 5 4 3 2 2 3 3 3 3 4 5 5 6 7 9 10 10 11 11 12 12 13 13
13 13 11 10 8 7 7 8 7 5 4 6 11 13 12 12 13 14 13 13 13 12 11 11 11 11 11 13 16 17 19 21 21 18 17 16 14 14 12 12 12 12 11 10 9 8 8 7 7 8 8 8 8 7 6 6 6 5 5 4 4 4 3 3 2 2 0 1 2 3 4 5 6 7 7 8 9 11 12 12 13 14 14 14 15
13 12 10 9 9 9 9 8 7 5 5 10 13 13 13 13 14 14 13 13 12 12 11 11 11 11 12 14 17 18 20 22 22 19 18 16 15 14 13 12 13 12 11 10 9 9 9 9 8 8 9 9 8 8 8 8 8 7 6 5 5 4 3 3 2 1 1 1 3 4 6 7 7 8 9 10 11 11 13 13 14 15 15 15 15
13 12 11 10 10 11 10 8 7 5 6 12 14 14 14 14 13 13 13 12 12 11 11 11 11 11 13 15 18 20 21 23 23 20 18 17 16 15 14 13 13 13 11 10 10 10 10 10 10 9 9 9 8 8 8 8 8 7 7 6 5 4 3 2 1 0 1 2 4 5 7 8 9 10 10 11 12 13 13 13 14 15 16 16 15
13 12 12 10 10 11 9 8 7 6 8 13 14 14 14 13 13 13 12 12 11 11 11 11 11 12 13 14 19 21 21 23 23 20 18 18 17 16 15 14 14 13 12 11 10 10 10 10 11 9 8 8 8 7 7 7 6 5 5 4 4 3 2 1 0 1 3 4 6 6 7 9 10 11 12 12 13 14 14 14 14 14 15 15 15
14 13 12 11 10 10 9 8 7 7 10 13 14 14 13 13 13 13 13 12 11 11 10 10 10 12 13 14 18 20 21 23 24 22 20 19 18 17 15 14 14 13 12 12 11 11 11 10 10 10 8 8 8 7 8 6 4 3 3 2 1 1 0 1 2 4 5 7 8 9 9 10 11 12 13 13 13 14 14 14 14 14 15 16 17
15 14 13 12 10 10 9 8 7 9 11 12 13 14 13 13 13 13 13 12 11 10 10 9 9 11 13 15 18 20 22 23 25 24 21 20 19 17 16 16 15 15 14 13 12 11 11 11 10 8 7 6 6 6 7 5 2 2 2 1 1 2 4 5 4 5 7 8 9 10 11 10 10 12 12 13 13 14 15 15 16 17 17 17 18
15 14 13 12 11 12 10 7 8 9 10 11 13 13 12 12 13 12 12 11 10 10 9 8 8 10 13 15 18 20 21 23 25 25 22 20 19 18 17 16 15 15 14 13 13 13 12 11 10 8 6 4 3 4 6 4 2 1 2 2 1 2 3 4 4 6 7 8 7 7 9 10 11 12 12 13 15 15 16 17 18 18 18 18 18
15 15 14 14 12 12 11 9 9 10 10 11 12 13 13 13 12 12 11 10 10 9 9 7 8 9 12 14 16 19 20 22 24 25 23 21 20 20 18 16 15 14 14 13 14 14 13 12 10 9 7 4 2 4 5 4 4 2 2 3 2 3 1 1 2 6 6 5 6 6 7 8 11 12 11 12 15 17 18 18 18 18 18 19 19
16 16 16 15 13 11 11 10 11 10 10 11 11 12 13 13 12 11 11 11 9 8 7 6 6 8 10 12 15 18 20 21 24 25 24 22 21 20 18 16 15 14 14 14 14 14 14 12 10 9 8 5 2 1 3 4 5 5 4 3 3 2 3 2 1 4 3 3 5 7 9 9 10 11 10 11 14 15 17 18 18 19 19 19 20
16 16 16 16 14 12 11 11 12 11 11 11 11 12 12 13 12 12 11 11 10 9 8 6 5 6 8 10 14 17 18 20 22 24 24 23 22 21 19 17 15 14 14 14 14 14 14 12 11 10 9 7 5 4 2 2 0 3 4 4 3 2 3 3 3 3 3 3 4 5 9 10 11 11 10 11 13 14 16 17 18 20 21 20 20
16 16 16 16 14 13 12 12 13 13 12 11 11 12 12 13 12 12 12 11 10 9 8 7 6 6 7 10 13 16 17 18 20 22 24 24 22 21 20 17 15 14 13 12 13 13 14 13 11 11 10 8 7 6 5 5 5 3 1 1 2 2 2 2 2 3 4 4 5 5 7 10 11 11 11 11 14 16 16 16 16 19 21 20 21
17 16 16 16 16 14 13 13 14 14 13 12 12 12 12 14 13 12 11 11 9 8 7 6 5 6 7 9 11 14 16 17 18 21 23 23 23 21 20 18 16 14 13 12 11 12 13 13 12 12 12 11 10 8 7 7 6 5 4 4 3 2 2 2 2 2 3 3 4 4 6 10 10 11 13 12 13 17 17 17 18 18 20 21 21
18 17 17 16 16 15 13 14 15 15 14 13 12 13 13 14 14 13 12 11 9 7 6 5 5 5 6 7 10 12 15 16 17 19 21 22 23 22 21 19 16 14 13 12 11 11 12 12 12 12 12 12 12 11 10 9 8 7 6 5 5 5 4 4 3 3 4 3 3 3 5 9 8 10 15 15 14 15 16 18 18 16 18 20 20
18 17 17 17 16 16 14 15 16 15 15 14 14 13 13 14 14 14 13 12 10 8 7 5 5 5 5 7 9 11 13 15 15 16 18 20 22 22 21 18 16 15 13 12 11 11 11 12 12 12 11 11 12 11 11 10 9 8 7 7 6 6 5 5 5 5 5 4 3 4 6 7 6 7 12 15 13 12 13 15 14 14 17 18 19
18 17 17 17 17 17 15 15 16 16 16 15 15 14 14 15 14 14 13 12 10 9 7 6 5 4 3 5 7 9 12 13 14 14 16 18 20 20 20 19 16 15 13 12 11 11 10 11 11 11 11 10 11 11 10 10 9 8 7 7 7 7 6 6 7 6 6 6 5 5 6 8 6 5 9 14 14 10 11 12 11 13 16 17 18
Wind_Direction
130 145 93 97 113 116 113 127 131 122 115 114 113 107 106 106 102 96 88 79 72 62 56 51 44 42 45 60 63 62 59 53 49 39 46 38 37 39 15 16 2 4 0 15 18 6 9 3 3 9 12 18 15 9 14 19 19 16 16 18 20 16 12 13 8 359 352 352 9 29 36 42 50 55 53 35 31 27 52 51 65 68 333 291 302
113 103 82 92 102 113 124 131 125 112 108 107 103 99 100 95 87 79 70 63 56 54 53 50 48 48 42 45 54 52 47 39 38 29 31 17 0 4 352 354 350 350 344 348 359 0 4 356 351 357 359 1 0 355 358 8 13 14 13 17 23 23 26 26 23 22 17 21 35 43 36 35 37 37 41 35 33 26 57 71 91 94 285 272 68
115 96 83 90 90 102 125 126 120 111 103 98 93 87 85 73 59 51 44 45 40 44 47 48 47 52 53 47 45 47 55 47 44 30 25 20 10 8 1 9 2 358 356 358 7 4 3 359 354 357 357 354 353 347 346 0 6 8 8 9 13 20 27 29 29 30 33 43 51 50 37 31 20 23 48 51 48 51 63 73 94 108 145 105 78
108 91 80 90 94 109 121 118 118 111 100 91 87 79 67 60 46 37 30 30 33 41 44 49 51 57 62 59 53 45 49 46 45 39 28 25 22 16 13 17 11 10 6 4 9 4 0 1 356 356 355 350 347 342 345 1 8 8 3 2 5 13 21 25 27 29 39 46 51 56 48 35 12 28 67 65 61 67 72 76 81 89 91 84 72
100 94 86 94 104 114 115 114 115 108 106 95 83 69 58 53 40 33 22 18 21 30 39 48 58 61 64 61 58 49 41 35 28 23 18 16 16 13 11 11 7 5 2 358 358 357 354 355 356 355 354 348 344 343 358 16 20 17 8 5 6 10 14 18 20 22 26 28 44 62 63 46 35 59 85 86 77 75 78 87 88 82 80 77 69
103 101 98 99 104 108 111 118 121 117 116 92 73 58 49 40 28 23 17 21 21 19 31 41 54 55 58 57 57 53 40 28 21 15 11 9 9 10 10 7 5 3 358 352 345 345 353 0 2 359 356 351 348 356 23 39 32 25 19 17 13 13 12 14 17 16 13 21 48 70 79 72 68 77 87 91 88 81 79 89 91 86 85 82 77
102 100 107 106 106 111 114 112 118 128 131 104 78 63 53 44 38 44 43 46 36 27 37 44 52 50 51 54 52 48 43 38 39 33 23 23 24 26 24 20 16 11 6 0 352 350 358 4 3 3 5 6 11 21 40 47 32 26 24 25 26 27 24 22 20 20 26 49 66 69 81 85 91 89 77 83 95 93 81 78 84 89 87 80 80
103 101 113 113 110 114 110 95 95 99 102 98 89 80 74 71 65 62 60 61 58 56 61 59 56 54 52 51 49 48 52 55 57 55 46 41 40 37 31 29 24 20 19 18 17 16 20 23 24 26 29 33 38 42 47 37 20 18 20 31 40 41 37 32 30 34 50 78 88 86 90 89 94 95 79 80 89 93 85 75 79 84 73 65 68
113 102 107 107 107 107 95 85 86 81 81 86 88 89 87 83 78 75 76 75 76 77 81 82 73 64 60 58 61 62 63 62 62 59 54 48 45 41 35 34 31 30 30 33 36 35 38 38 39 43 44 46 48 49 48 40 33 31 31 40 43 45 45 40 44 53 67 83 90 93 96 93 93 92 82 80 79 84 84 72 73 69 60 55 53
123 105 101 104 105 99 89 82 87 87 83 85 87 93 96 92 87 85 87 84 83 85 86 84 80 75 70 74 76 74 68 62 62 58 56 52 49 47 43 42 42 42 42 44 44 41 42 39 41 46 49 50 50 51 51 47 46 48 49 51 51 50 49 51 58 65 76 81 84 82 87 91 92 88 77 74 74 80 77 54 62 60 57 58 46
122 111 107 111 109 100 99 93 96 95 89 93 93 95 97 97 97 92 87 85 84 86 85 82 82 83 81 80 78 72 68 63 62 61 58 55 52 50 49 48 48 49 49 49 46 44 43 43 46 49 51 52 54 55 53 48 46 49 54 58 59 61 59 63 68 77 83 77 77 74 72 79 82 79 69 62 57 61 59 27 38 42 37 48 36
113 112 115 113 110 114 116 110 114 107 98 95 93 94 96 99 101 96 91 91 91 87 82 84 86 87 84 77 74 69 67 65 66 68 62 57 56 55 52 51 50 51 51 48 46 46 48 52 56 58 58 55 55 56 53 49 47 49 56 62 66 73 69 72 75 79 82 71 70 73 64 68 69 67 63 51 45 43 47 36 42 42 31 38 28
116 114 115 113 112 119 121 122 126 112 103 94 93 97 97 94 88 87 89 93 95 91 86 89 90 85 80 73 73 70 66 69 73 74 67 63 62 60 56 53 51 50 49 47 46 47 51 56 59 62 62 58 57 56 54 51 51 52 58 68 74 79 73 76 77 63 76 75 69 73 64 63 64 64 62 43 46 46 43 33 29 35 38 34 20
127 123 115 117 118 122 123 125 121 108 104 98 97 99 94 85 78 79 78 79 78 87 95 92 89 84 79 74 74 73 70 72 77 77 74 72 67 63 61 57 53 48 45 43 43 46 49 51 55 60 62 60 60 58 54 50 50 54 61 75 79 83 75 71 70 59 75 82 72 71 65 61 62 63 62 49 48 48 42 28 11 18 22 17 7
128 132 120 117 117 123 129 127 118 107 107 106 103 97 92 88 83 81 78 77 70 80 94 89 85 84 78 77 77 76 71 70 75 78 76 73 68 65 62 58 52 47 43 42 41 41 43 45 47 53 59 60 59 56 52 50 51 58 66 80 80 82 82 71 66 59 67 76 71 68 65 61 62 61 61 59 57 53 50 41 22 17 11 7 4
127 134 128 122 114 119 127 127 122 115 113 109 103 96 92 95 94 92 90 92 86 87 92 87 85 80 73 67 63 63 61 55 59 66 67 66 65 63 59 56 49 44 40 41 40 40 41 41 41 44 54 55 53 50 48 49 53 62 70 81 82 83 88 82 72 64 58 65 65 62 62 61 61 59 60 60 57 53 50 48 40 31 20 13 2
136 137 136 132 119 117 120 120 122 122 122 112 105 100 95 95 97 97 98 96 88 89 90 83 78 72 65 59 50 48 46 37 34 28 27 27 27 24 24 23 22 23 17 21 24 29 35 36 39 35 43 47 48 46 45 48 52 65 73 79 84 85 88 83 73 71 62 63 66 62 60 61 60 59 58 57 54 51 48 47 42 38 30 24 14
141 137 136 130 122 122 119 117 120 117 114 110 105 101 95 94 97 97 94 89 82 85 83 68 67 63 56 52 39 31 22 16 14 1 353 351 350 347 343 340 339 337 330 332 333 343 5 19 34 27 33 37 41 46 44 48 54 66 75 78 83 85 85 81 72 72 67 65 67 63 60 58 59 57 56 54 52 48 45 45 42 39 36 35 31
135 132 133 127 125 123 119 120 120 115 108 108 106 100 95 95 97 95 88 82 78 76 71 58 54 48 37 24 10 6 2 358 356 347 341 337 335 334 331 326 322 318 311 305 304 306 321 348 16 23 27 30 36 46 43 50 64 68 75 81 83 82 80 78 73 70 66 64 62 58 57 56 55 54 53 53 51 47 44 44 42 40 39 39 40
133 130 134 132 131 124 122 125 120 116 112 111 107 101 96 94 91 89 86 82 77 70 65 57 50 32 10 1 359 1 359 358 353 344 336 331 327 328 327 320 315 312 305 298 295 292 291 309 349 21 26 34 40 42 41 50 73 77 79 84 79 78 79 77 72 68 65 62 59 57 56 57 57 56 54 52 50 48 46 46 44 42 40 38 40
133 135 142 137 132 128 126 123 120 115 112 111 105 98 91 87 84 82 80 77 72 67 60 50 41 20 3 356 357 5 358 348 345 341 334 330 327 327 326 322 319 317 316 312 307 299 287 285 296 18 43 46 30 37 58 58 71 84 83 79 77 80 78 73 70 67 66 64 60 58 59 62 64 63 59 56 52 49 46 46 47 46 45 43 46
134 138 147 139 128 127 125 121 118 114 112 109 100 92 84 78 73 69 67 63 56 50 41 32 28 16 6 349 347 356 350 337 333 334 329 328 327 329 333 331 330 331 335 336 332 327 309 288 274 328 67 58 17 40 90 82 80 84 78 78 83 81 70 71 74 71 69 67 64 58 54 58 63 64 60 56 52 52 49 44 44 47 49 50 50
138 137 146 139 127 124 125 121 115 111 112 103 92 84 78 72 66 61 55 48 43 37 29 31 35 13 344 338 343 347 343 333 330 334 334 335 332 332 338 338 344 349 358 10 12 17 43 64 103 119 87 73 51 61 93 98 92 83 79 84 89 78 70 76 80 79 75 71 67 59 52 52 54 59 60 57 50 48 47 43 44 45 46 46 45
142 144 147 139 131 130 128 122 112 108 107 95 85 79 73 71 68 63 56 46 38 33 31 32 27 4 354 357 5 4 2 350 343 350 352 355 351 349 353 358 8 11 26 42 40 47 58 58 77 95 87 85 104 96 95 106 100 89 90 93 89 79 76 84 87 84 80 70 62 57 53 51 51 54 58 59 53 45 41 41 43 42 41 40 39
146 150 144 138 135 133 130 124 115 108 99 86 77 71 68 68 63 56 57 46 35 40 44 43 37 40 37 34 29 21 27 15 2 6 6 10 15 18 21 26 34 34 45 51 47 51 56 54 60 79 88 94 110 115 108 107 98 97 104 100 95 90 86 92 92 85 76 61 53 55 57 55 52 51 53 54 53 48 44 44 42 38 35 33 34
142 144 140 139 139 134 133 127 117 107 92 81 70 62 62 61 50 45 45 27 36 63 74 72 63 64 58 49 41 35 39 29 17 20 21 21 27 36 35 40 44 43 52 50 48 54 56 58 62 70 83 95 104 116 116 105 97 104 111 109 109 105 96 91 89 86 77 57 49 55 59 56 52 48 48 50 51 51 52 50 48 45 40 36 33
135 139 145 145 141 135 134 124 109 99 79 70 68 61 53 46 30 24 24 29 68 84 87 83 72 66 60 55 53 48 45 39 33 33 37 36 37 44 41 43 44 40 51 50 47 53 56 58 64 69 76 87 101 112 116 106 108 115 116 118 117 109 102 95 86 85 78 58 50 56 54 48 45 42 47 53 50 51 53 52 51 49 44 43 38
136 145 150 150 144 132 129 121 106 95 80 72 69 57 39 32 21 17 34 72 92 94 90 82 72 64 60 60 60 57 51 46 41 35 36 40 42 47 46 48 49 42 47 52 50 51 56 59 63 69 75 81 91 103 110 108 114 118 121 125 120 112 107 101 89 86 83 65 57 62 50 39 37 37 42 46 38 37 40 42 42 37 37 42 39
149 156 154 151 144 134 132 127 115 98 89 85 71 49 35 28 26 44 75 89 96 95 90 83 74 67 66 66 64 62 55 44 40 33 30 36 37 39 42 46 51 53 51 55 58 55 54 58 63 68 75 80 86 96 100 105 110 113 119 125 117 109 105 101 93 93 90 72 66 77 59 36 33 32 31 28 22 22 24 27 29 28 34 42 37
159 158 153 148 143 141 138 129 116 95 90 90 65 35 29 29 47 78 91 93 96 94 90 85 79 75 73 71 65 62 54 43 39 35 33 35 35 33 38 42 46 57 59 59 64 64 60 62 67 69 76 81 86 92 95 104 111 116 121 124 118 112 109 104 101 99 98 97 94 89 69 28 19 15 9 7 8 13 19 24 26 28 33 33 28
161 154 152 150 144 140 133 123 105 94 96 78 37 21 29 57 80 94 98 98 99 95 91 86 83 81 74 68 64 59 51 43 39 36 37 39 40 39 39 46 49 58 64 66 68 69 68 69 72 75 79 82 85 92 95 100 109 128 131 126 121 116 113 108 104 104 106 112 111 67 6 352 348 343 341 343 344 349 358 5 8 13 15 14 14
158 152 155 154 145 140 133 124 106 98 94 57 42 40 55 86 100 105 104 103 101 95 92 88 86 81 72 66 60 53 46 40 37 36 39 43 46 49 49 54 58 62 67 72 75 74 72 68 69 73 77 81 84 90 99 104 113 145 156 152 141 128 123 123 119 119 125 130 133 291 313 322 320 319 325 328 328 331 334 335 340 344 346 347 348
154 157 158 153 147 147 139 126 118 107 86 61 51 64 89 105 110 112 108 104 100 96 94 91 86 77 68 63 55 48 43 37 33 34 40 45 50 55 59 65 68 68 68 71 75 75 72 67 64 69 77 80 80 82 92 109 126 158 169 166 157 145 140 152 155 151 162 181 210 266 298 307 308 313 319 323 325 326 326 327 330 330 329 327 325
154 160 159 156 153 148 138 130 127 105 65 42 55 94 114 115 113 114 110 105 101 99 96 89 84 74 64 59 53 47 42 36 32 34 43 49 52 58 64 72 76 74 70 69 71 72 76 80 78 78 86 87 84 84 90 106 126 157 170 167 166 161 153 167 181 190 207 229 250 272 290 300 306 315 321 325 326 327 329 328 327 326 323 321 318
156 158 161 162 157 145 135 128 117 91 60 51 86 117 121 117 115 115 112 107 104 101 95 88 82 73 62 55 53 48 42 37 33 35 45 50 53 58 64 71 78 78 74 71 71 72 75 88 97 96 95 97 99 100 101 109 118 144 168 174 182 183 181 187 192 210 233 252 274 287 296 306 313 319 324 326 329 329 329 328 325 324 321 318 317
158 160 163 162 153 142 129 120 105 78 66 86 114 126 123 119 117 115 113 109 107 102 95 89 81 72 63 53 51 49 43 38 35 38 46 50 52 56 61 69 74 75 74 75 78 82 86 95 103 107 107 106 109 115 112 107 109 122 140 158 178 186 191 194 186 203 250 277 300 312 317 325 328 332 332 327 327 328 326 325 322 320 320 320 318
161 163 165 163 153 140 130 120 101 74 79 112 126 130 125 119 117 117 115 111 108 101 93 87 80 73 64 54 51 49 44 40 38 41 46 48 51 54 58 65 71 71 73 79 84 91 96 97 102 111 115 110 109 117 119 112 110 117 126 134 143 153 163 163 157 142 80 334 333 333 332 333 334 333 330 324 322 321 321 321 321 320 320 318 316
162 163 165 163 151 142 136 119 95 83 108 129 133 132 126 122 121 120 116 112 108 102 95 88 81 74 64 56 53 50 45 41 40 43 48 49 51 54 57 64 69 69 73 79 85 90 94 98 102 112 118 114 112 115 116 112 109 115 126 131 128 132 140 144 144 121 90 344 330 330 327 326 327 324 322 321 319 320 322 323 324 323 323 324 324
161 163 163 156 149 148 138 112 89 86 124 139 137 132 128 125 123 120 115 111 107 102 97 89 82 73 65 57 53 52 48 44 42 44 50 53 54 55 57 63 66 68 73 78 85 88 91 98 102 108 115 119 121 121 120 120 119 122 130 135 133 136 139 131 128 134 302 311 318 321 323 322 322 324 326 326 326 326 327 329 331 331 332 333 332
163 165 161 154 154 153 136 110 96 100 130 143 140 135 132 129 127 124 119 115 112 107 101 92 83 73 65 57 53 52 49 46 44 46 51 54 56 57 59 63 66 67 71 76 83 88 92 100 107 114 118 121 121 119 123 127 128 129 135 143 139 140 143 119 68 304 301 308 314 319 326 328 331 333 335 333 331 332 333 334 336 336 336 336 339
168 168 163 158 158 155 139 117 109 118 137 146 145 142 139 137 135 131 126 122 116 109 103 95 84 72 65 58 54 53 51 49 46 47 52 54 56 58 61 65 68 69 72 74 78 84 92 101 111 118 123 127 125 126 129 120 114 124 124 139 148 149 27 354 326 316 316 319 324 329 334 338 339 337 335 335 334 335 336 338 339 342 347 349 353
172 172 168 163 161 159 148 129 125 134 144 150 150 148 144 142 140 135 132 127 118 112 106 99 84 68 61 58 56 54 52 49 47 48 51 53 56 58 60 63 66 69 70 73 75 78 87 99 110 116 124 138 139 149 146 123 106 138 127 149 253 304 322 328 325 327 329 329 332 333 333 335 335 335 335 338 340 341 342 345 349 353 355 355 355
177 175 173 169 164 164 159 146 144 146 150 154 154 154 150 147 145 141 138 135 129 124 116 104 87 67 57 57 57 55 54 52 49 49 50 54 56 57 59 62 65 69 71 75 78 80 85 95 110 121 125 132 150 176 171 150 151 190 218 221 214 274 301 319 328 333 332 333 340 340 339 340 338 343 347 345 346 348 349 352 354 353 352 352 351
180 179 177 173 168 170 168 161 159 154 155 159 157 159 157 152 150 147 145 142 136 127 116 102 85 67 55 55 57 55 54 54 52 50 50 53 56 57 59 62 67 73 77 80 81 83 84 88 102 119 126 132 185 212 215 213 206 205 247 279 273 258 255 109 338 335 344 351 353 347 350 354 349 352 357 350 348 350 350 350 349 350 351 350 349
183 182 182 178 173 174 172 168 167 162 160 163 163 163 160 156 153 150 148 145 137 126 119 107 86 67 55 54 56 54 53 53 53 51 50 53 55 56 57 60 64 70 77 81 82 83 83 82 88 100 114 125 138 220 240 249 240 222 231 281 279 285 25 60 290 320 347 0 357 347 348 354 352 355 356 350 349 348 347 347 348 351 352 350 349
187 187 186 184 178 176 175 172 172 170 168 169 169 166 163 162 157 152 152 149 144 140 135 126 104 79 63 59 57 54 52 51 52 51 50 52 55 56 56 57 60 64 71 78 84 87 87 87 89 93 100 103 93 81 73 56 37 221 229 247 248 278 340 334 314 311 309 334 357 351 348 348 345 349 351 346 346 346 349 353 353 353 352 349 348
188 189 188 188 184 182 181 179 177 176 175 175 174 171 169 169 163 158 159 155 153 155 148 137 118 87 71 64 59 54 51 50 51 51 49 49 54 57 57 57 59 63 67 75 83 88 92 94 96 100 101 104 106 103 91 77 72 84 122 175 222 262 279 309 345 323 305 318 335 344 346 343 340 346 353 349 347 350 354 358 356 353 351 349 347
188 189 190 190 187 187 187 185 184 181 181 182 180 177 176 175 171 167 167 163 162 165 154 137 114 88 76 65 56 52 50 48 48 50 49 48 50 55 57 57 59 63 67 72 79 85 90 92 92 96 100 102 107 109 107 100 94 91 87 90 83 54 34 45 45 358 338 311 324 354 339 336 343 347 353 354 349 352 353 354 357 355 351 349 347
188 190 192 190 188 189 189 188 186 185 188 189 184 183 182 179 178 174 170 168 169 167 161 147 117 96 83 63 54 51 48 46 46 48 49 47 47 51 53 55 57 62 66 69 74 80 85 87 87 89 92 95 96 98 101 100 95 93 88 87 83 68 46 35 55 47 15 338 334 3 338 338 344 337 348 358 355 352 352 354 358 355 350 349 348
189 191 194 191 189 190 190 190 189 188 193 195 188 187 187 183 182 179 174 174 173 170 171 162 133 110 84 59 52 49 44 43 43 45 48 47 47 49 50 52 54 59 64 66 68 72 77 81 82 81 82 85 86 85 86 86 83 82 82 82 83 79 65 44 49 50 31 13 349 348 350 350 339 323 340 354 357 353 351 356 357 348 346 349 345
192 192 193 193 192 193 192 191 191 191 195 197 193 191 190 187 185 184 181 180 180 179 179 172 148 126 87 58 47 43 41 39 39 42 44 46 47 47 48 50 52 54 57 60 62 64 68 73 75 75 75 75 77 74 73 73 71 71 71 74 78 77 73 57 52 52 43 36 14 350 352 349 343 328 327 343 357 1 354 357 353 340 342 346 343